Date String (YYYY-MM-DD hh:mm:ss) UTC,Instrument flags,Ambient pressure (hPa),Sample flow (lpm),Bypass flow (lpm),Sample temperature (°C),Ambient temperature (°C),ASC tube jacket temperature (°C),LED temperature (°C),Box temperature (°C),Sample RH (%),Span deviation,Mass concentration (μg/m³),Mass concentration (μg/m³),Mass concentration (μg/m³)
DateTimeUTC,F1_M11,P_M11,Q1_M11,Q2_M11,T1_M11,T2_M11,T3_M11,T4_M11,T5_M11,U1_M11,ZSPAN_M11,X0_M11,X2_M11,X1_M11
2021-12-19 09:00:00,,0824.8,5.00,0.00,22.8,22.0,00.0,31.7,24.5,06.3,0000.0,0013.16,0006.51,0005.57
2021-12-19 09:01:00,,0824.8,5.00,0.00,22.7,22.0,00.0,31.7,24.5,06.1,0000.0,0012.76,0006.38,0005.48
2021-12-19 09:02:00,,0824.8,5.00,0.00,22.7,21.9,00.0,31.7,24.4,06.1,0000.0,0011.94,0006.22,0005.37
2021-12-19 09:03:00,,0824.8,5.01,0.00,22.7,21.9,00.0,31.7,24.4,06.0,0000.0,0011.77,0006.11,0005.27
2021-12-19 09:04:00,,0824.8,5.00,0.00,22.7,21.8,00.0,31.7,24.3,06.1,0000.0,0011.98,0006.06,0005.20
2021-12-19 09:05:00,,0824.8,5.00,0.00,22.6,21.7,00.0,31.7,24.2,06.2,0000.0,0012.91,0006.05,0005.20
2021-12-19 09:06:00,,0824.8,4.99,0.00,22.6,21.7,00.0,31.7,24.1,06.0,0000.0,0013.53,0006.05,0005.18
2021-12-19 09:07:00,,0824.8,5.00,0.00,22.5,21.6,00.0,31.6,24.1,05.7,0000.0,0012.90,0005.79,0004.96
2021-12-19 09:08:00,,0824.8,5.02,0.00,22.5,21.6,00.0,31.6,24.1,06.0,0000.0,0011.99,0005.49,0004.71
2021-12-19 09:09:00,,0824.8,4.99,0.00,22.5,21.8,00.0,31.6,24.1,06.0,0000.0,0012.35,0005.31,0004.53
2021-12-19 09:10:00,,0824.9,5.01,0.00,22.6,22.5,00.0,31.6,24.4,06.1,0000.0,0012.17,0005.19,0004.40
2021-12-19 09:11:00,,0824.9,4.98,0.00,22.7,23.2,00.0,31.7,24.6,06.0,0000.0,0011.93,0005.07,0004.31
2021-12-19 09:12:00,,0824.9,5.00,0.00,22.8,23.3,00.0,31.7,24.8,05.8,0000.0,0011.79,0004.95,0004.23
2021-12-19 09:13:00,,0824.9,5.00,0.00,22.9,23.1,00.0,31.7,24.7,05.8,0000.0,0011.92,0004.83,0004.10
2021-12-19 09:14:00,,0824.9,5.02,0.00,22.8,22.8,00.0,31.7,24.6,05.9,0000.0,0011.81,0004.73,0004.05
2021-12-19 09:15:00,,0824.8,4.99,0.00,22.8,22.6,00.0,31.7,24.5,06.1,0000.0,0011.74,0004.68,0004.03
2021-12-19 09:16:00,,0824.9,4.99,0.00,22.8,22.5,00.0,31.7,24.5,05.9,0000.0,0011.37,0004.66,0003.99
2021-12-19 09:17:00,,0824.8,5.01,0.00,22.8,22.4,00.0,31.7,24.5,05.9,0000.0,0010.70,0004.63,0003.93
2021-12-19 09:18:00,,0824.8,4.99,0.00,22.8,22.3,00.0,31.7,24.5,06.1,0000.0,0011.18,0004.73,0004.00
2021-12-19 09:19:00,,0824.7,5.01,0.00,22.7,22.2,00.0,31.7,24.5,06.0,0000.0,0011.52,0004.81,0004.04
2021-12-19 09:20:00,,0824.8,4.99,0.00,22.7,22.1,00.0,31.7,24.4,05.9,0000.0,0010.70,0004.72,0003.98
2021-12-19 09:21:00,,0824.8,5.01,0.00,22.7,22.0,00.0,31.7,24.4,05.9,0000.0,0010.49,0004.63,0003.90
2021-12-19 09:22:00,,0824.8,5.00,0.00,22.7,22.0,00.0,31.7,24.4,05.8,0000.0,0010.06,0004.51,0003.81
2021-12-19 09:23:00,,0824.7,4.98,0.00,22.7,22.0,00.0,31.7,24.4,05.8,0000.0,0009.90,0004.39,0003.69
2021-12-19 09:24:00,,0824.8,5.02,0.00,22.7,21.9,00.0,31.7,24.3,05.5,0000.0,0009.57,0004.25,0003.58
2021-12-19 09:25:00,,0824.9,4.99,0.00,22.7,21.9,00.0,31.7,24.3,05.7,0000.0,0009.43,0004.08,0003.45
2021-12-19 09:26:00,,0824.8,5.01,0.00,22.6,21.8,00.0,31.7,24.2,05.7,0000.0,0008.93,0003.92,0003.33
2021-12-19 09:27:00,,0824.8,5.00,0.00,22.5,21.7,00.0,31.6,24.1,05.5,0000.0,0008.16,0003.72,0003.19
2021-12-19 09:28:00,,0824.7,4.99,0.00,22.5,21.6,00.0,31.6,24.0,05.6,0000.0,0007.69,0003.51,0003.01
2021-12-19 09:29:00,,0824.8,5.00,0.00,22.4,21.5,00.0,31.6,23.9,05.5,0000.0,0006.79,0003.27,0002.69
2021-12-19 09:30:00,,0824.8,5.00,0.00,22.4,21.5,00.0,31.6,23.9,05.6,0000.0,0005.63,0002.98,0002.38
2021-12-19 09:31:00,,0824.8,4.99,0.00,22.4,22.1,00.0,31.6,24.1,05.4,0000.0,0005.82,0002.70,0002.15
2021-12-19 09:32:00,,0824.9,5.01,0.00,22.6,22.9,00.0,31.6,24.4,05.5,0000.0,0005.40,0002.44,0001.96
2021-12-19 09:33:00,,0824.8,5.00,0.00,22.7,23.2,00.0,31.6,24.6,05.6,0000.0,0005.36,0002.29,0001.82
2021-12-19 09:34:00,,0824.8,4.99,0.00,22.7,22.9,00.0,31.6,24.5,05.8,0000.0,0005.46,0002.39,0001.90
2021-12-19 09:35:00,,0824.7,5.01,0.00,22.6,22.6,00.0,31.6,24.3,05.8,0000.0,0005.71,0002.58,0002.06
2021-12-19 09:36:00,,0824.7,4.99,0.00,22.6,22.4,00.0,31.6,24.2,05.5,0000.0,0005.41,0002.73,0002.17
2021-12-19 09:37:00,,0824.8,5.00,0.00,22.5,22.2,00.0,31.6,24.2,05.3,0000.0,0005.32,0002.67,0002.09
2021-12-19 09:38:00,,0824.7,5.01,0.00,22.5,22.0,00.0,31.6,24.1,05.4,0000.0,0005.93,0002.66,0002.09
2021-12-19 09:39:00,,0824.7,4.98,0.00,22.4,21.9,00.0,31.6,24.0,05.6,0000.0,0007.23,0002.83,0002.19
2021-12-19 09:40:00,,0824.7,5.00,0.00,22.4,21.7,00.0,31.5,24.0,05.4,0000.0,0007.34,0002.84,0002.20
2021-12-19 09:41:00,,0824.6,5.00,0.00,22.4,21.7,00.0,31.5,24.0,05.4,0000.0,0007.40,0002.87,0002.26
2021-12-19 09:42:00,,0824.6,4.99,0.00,22.4,21.6,00.0,31.5,24.0,05.4,0000.0,0006.85,0002.86,0002.28
2021-12-19 09:43:00,,0824.6,5.01,0.00,22.3,21.5,00.0,31.5,23.9,05.5,0000.0,0007.58,0002.84,0002.28
2021-12-19 09:44:00,,0824.6,5.00,0.00,22.3,21.5,00.0,31.4,23.9,05.6,0000.0,0007.45,0002.81,0002.25
2021-12-19 09:45:00,,0824.6,4.99,0.00,22.3,21.4,00.0,31.4,23.8,05.6,0000.0,0006.94,0002.52,0002.02
2021-12-19 09:46:00,,0824.6,5.01,0.00,22.2,21.4,00.0,31.4,23.8,05.6,0000.0,0006.40,0002.24,0001.80
2021-12-19 09:47:00,,0824.7,4.98,0.00,22.2,21.3,00.0,31.4,23.7,05.5,0000.0,0006.03,0002.03,0001.64
2021-12-19 09:48:00,,0824.6,5.02,0.00,22.1,21.3,00.0,31.3,23.7,05.5,0000.0,0005.94,0001.96,0001.58
2021-12-19 09:49:00,,0824.6,5.00,0.00,22.1,21.5,00.0,31.3,23.7,05.5,0000.0,0005.38,0001.90,0001.51
2021-12-19 09:50:00,,0824.7,4.99,0.00,22.2,22.3,00.0,31.4,24.0,05.5,0000.0,0005.12,0001.68,0001.37
2021-12-19 09:51:00,,0824.6,4.99,0.00,22.4,23.2,00.0,31.4,24.3,05.6,0000.0,0006.14,0001.57,0001.29
2021-12-19 09:52:00,,0824.8,5.00,0.00,22.5,23.2,00.0,31.4,24.4,05.5,0000.0,0006.09,0001.51,0001.22
2021-12-19 09:53:00,,0824.6,5.00,0.00,22.5,22.8,00.0,31.4,24.3,05.5,0000.0,0005.98,0001.47,0001.18
2021-12-19 09:54:00,,0824.4,5.01,0.00,22.5,22.5,00.0,31.4,24.2,05.5,0000.0,0005.25,0001.47,0001.15
2021-12-19 09:55:00,,0824.3,4.99,0.00,22.4,22.3,00.0,31.4,24.1,05.5,0000.0,0006.16,0001.41,0001.14
2021-12-19 09:56:00,,0824.3,5.01,0.00,22.4,22.1,00.0,31.4,24.0,05.6,0000.0,0006.11,0001.37,0001.12
2021-12-19 09:57:00,,0824.4,5.00,0.00,22.4,22.0,00.0,31.4,24.0,05.8,0000.0,0006.13,0001.37,0001.10
2021-12-19 09:58:00,,0824.4,4.99,0.00,22.3,21.8,00.0,31.4,24.0,05.6,0000.0,0006.43,0001.40,0001.11
2021-12-19 09:59:00,,0824.4,5.02,0.00,22.3,21.8,00.0,31.4,23.9,05.7,0000.0,0006.55,0001.40,0001.13
